Austin, MN

2:04 AM CDT on May 01, 2017 (GMT -0500)
Austin Municipal

Weather History for KAUM - September, 2013

Change the Weather History Date:

Monday, September 23, 2013

  Actual Average Record
Temperature  
Mean Temperature 60 °F -  
Max Temperature 71 °F 67 °F 82 °F (2007)
Min Temperature 48 °F 45 °F 28 °F (2012)
Degree Days  
Heating Degree Days 6    
Growing Degree Days 10 (Base 50)    
Moisture  
Dew Point 49 °F    
Average Humidity 73    
Maximum Humidity 94    
Minimum Humidity 43    
Precipitation  
Precipitation 0.00 in - - ()
Sea Level Pressure  
Sea Level Pressure 29.95 in    
Wind  
Wind Speed 9 mph (SE)    
Max Wind Speed 17 mph    
Max Gust Speed 26 mph    
Visibility 10 miles    
Events      
Averages and records for this station are not official NWS values.
T = Trace of Precipitation, MM = Missing Value Source: NWS Daily Summary

Daily Weather History Graph

Daily Weather History Graph

Search for Another Location

Airport or City:

Trip Planner

Search our weather history database for the weather conditions in past years. The results will help you decide how hot, cold, wet, or windy it might be!

Date:

Astronomy

Sep. 23, 2013 Rise Set
Actual Time 7:00 AM CDT 7:06 PM CDT
Civil Twilight 6:31 AM CDT 7:35 PM CDT
Nautical Twilight 5:58 AM CDT 8:08 PM CDT
Astronomical Twilight 5:23 AM CDT 8:43 PM CDT
Moon 9:30 PM CDT (9/23) 11:28 AM CDT (9/23)
Length of Visible Light 13h 03m
Length of Day
12h 06m
Waning Gibbous, 81% of the Moon is Illuminated
Sep 23
Waning Gibbous
Sep 26
Last Quarter
Oct 4
New
Oct 11
First Quarter
Oct 18
Full

Hourly Weather History & Observations

Time (CDT) Temp. Dew Point Humidity Pressure Visibility Wind Dir Wind Speed Gust Speed Precip Events Conditions
12:17 AM 55.4 °F 50.0 °F 82% 29.94 in 10.0 mi SSE 8.1 mph - N/A   Clear
12:37 AM 55.4 °F 48.2 °F 77% 29.94 in 10.0 mi SSE 5.8 mph - N/A   Clear
12:56 AM 55.4 °F 48.2 °F 77% 29.94 in 10.0 mi SSE 6.9 mph - N/A   Clear
1:17 AM 55.4 °F 48.2 °F 77% 29.95 in 10.0 mi SSE 8.1 mph - N/A   Clear
1:37 AM 55.4 °F 48.2 °F 77% 29.95 in 10.0 mi SSE 6.9 mph - N/A   Clear
1:56 AM 55.4 °F 48.2 °F 77% 29.95 in 10.0 mi SSE 8.1 mph - N/A   Clear
2:17 AM 53.6 °F 48.2 °F 82% 29.95 in 10.0 mi SSE 8.1 mph - N/A   Clear
2:36 AM 53.6 °F 48.2 °F 82% 29.95 in 10.0 mi SSE 5.8 mph - N/A   Clear
2:56 AM 53.6 °F 46.4 °F 77% 29.95 in 10.0 mi SSE 5.8 mph - N/A   Clear
3:17 AM 51.8 °F 46.4 °F 82% 29.95 in 10.0 mi SSE 6.9 mph - N/A   Clear
3:36 AM 51.8 °F 46.4 °F 82% 29.95 in 10.0 mi SSE 6.9 mph - N/A   Clear
3:56 AM 51.8 °F 46.4 °F 82% 29.95 in 10.0 mi SSE 5.8 mph - N/A   Clear
4:17 AM 51.8 °F 46.4 °F 82% 29.95 in 10.0 mi SSE 6.9 mph - N/A   Clear
4:36 AM 51.8 °F 46.4 °F 82% 29.95 in 10.0 mi SSE 6.9 mph - N/A   Clear
4:56 AM 51.8 °F 46.4 °F 82% 29.95 in 10.0 mi SSE 6.9 mph - N/A   Clear
5:17 AM 51.8 °F 46.4 °F 82% 29.95 in 10.0 mi SSE 8.1 mph - N/A   Clear
5:36 AM 51.8 °F 46.4 °F 82% 29.95 in 10.0 mi SSE 6.9 mph - N/A   Clear
5:57 AM 50.0 °F 46.4 °F 87% 29.96 in 10.0 mi SSE 8.1 mph - N/A   Clear
6:16 AM 50.0 °F 46.4 °F 87% 29.96 in 10.0 mi SSE 6.9 mph - N/A   Clear
6:37 AM 48.2 °F 46.4 °F 93% 29.96 in 10.0 mi SSE 8.1 mph - N/A   Clear
6:56 AM 48.2 °F 46.4 °F 93% 29.97 in 10.0 mi SE 6.9 mph - N/A   Clear
7:16 AM 48.2 °F 46.4 °F 93% 29.97 in 10.0 mi SE 9.2 mph - N/A   Clear
7:37 AM 50.0 °F 46.4 °F 87% 29.98 in 10.0 mi SE 8.1 mph - N/A   Clear
7:56 AM 50.0 °F 46.4 °F 87% 29.98 in 10.0 mi SSE 8.1 mph - N/A   Clear
8:16 AM 51.8 °F 46.4 °F 82% 29.98 in 10.0 mi SSE 8.1 mph - N/A   Clear
8:37 AM 51.8 °F 46.4 °F 82% 29.98 in 10.0 mi SSE 9.2 mph 17.3 mph N/A   Clear
8:56 AM 53.6 °F 48.2 °F 82% 29.98 in 10.0 mi SSE 11.5 mph 16.1 mph N/A   Clear
9:17 AM 53.6 °F 48.2 °F 82% 29.98 in 10.0 mi SSE 6.9 mph - N/A   Clear
9:36 AM 55.4 °F 48.2 °F 77% 29.99 in 10.0 mi SSE 10.4 mph 16.1 mph N/A   Clear
9:56 AM 57.2 °F 50.0 °F 77% 29.99 in 10.0 mi South 12.7 mph 16.1 mph N/A   Clear
10:17 AM 57.2 °F 50.0 °F 77% 29.99 in 10.0 mi SSE 10.4 mph 17.3 mph N/A   Clear
10:36 AM 59.0 °F 50.0 °F 72% 29.99 in 10.0 mi SSE 9.2 mph 16.1 mph N/A   Clear
10:56 AM 60.8 °F 50.0 °F 68% 30.00 in 10.0 mi South 11.5 mph 19.6 mph N/A   Clear
11:17 AM 62.6 °F 51.8 °F 68% 30.00 in 10.0 mi SSE 9.2 mph 18.4 mph N/A   Clear
11:36 AM 62.6 °F 51.8 °F 68% 29.99 in 10.0 mi SSE 11.5 mph 18.4 mph N/A   Clear
11:56 AM 64.4 °F 51.8 °F 64% 29.98 in 10.0 mi SSE 10.4 mph 17.3 mph N/A   Clear
12:17 PM 64.4 °F 51.8 °F 64% 29.97 in 10.0 mi SSE 11.5 mph 19.6 mph N/A   Clear
12:36 PM 64.4 °F 51.8 °F 64% 29.97 in 10.0 mi SSE 13.8 mph 23.0 mph N/A   Clear
12:56 PM 66.2 °F 51.8 °F 60% 29.96 in 10.0 mi South 13.8 mph 20.7 mph N/A   Clear
1:17 PM 68.0 °F 53.6 °F 60% 29.95 in 10.0 mi SSE 11.5 mph 18.4 mph N/A   Clear
1:36 PM 69.8 °F 53.6 °F 56% 29.94 in 10.0 mi SSE 12.7 mph 20.7 mph N/A   Clear
1:56 PM 69.8 °F 51.8 °F 53% 29.94 in 10.0 mi SSE 15.0 mph 20.7 mph N/A   Clear
2:17 PM 69.8 °F 51.8 °F 53% 29.93 in 10.0 mi SSE 15.0 mph 23.0 mph N/A   Clear
2:36 PM 69.8 °F 51.8 °F 53% 29.93 in 10.0 mi South 12.7 mph 20.7 mph N/A   Clear
2:56 PM 69.8 °F 48.2 °F 46% 29.92 in 10.0 mi SE 17.3 mph 20.7 mph N/A   Clear
3:17 PM 69.8 °F 48.2 °F 46% 29.92 in 10.0 mi South 12.7 mph 24.2 mph N/A   Clear
3:36 PM 71.6 °F 48.2 °F 43% 29.92 in 10.0 mi SSE 13.8 mph 23.0 mph N/A   Clear
3:57 PM 71.6 °F 50.0 °F 46% 29.91 in 10.0 mi SE 12.7 mph 21.9 mph N/A   Clear
4:16 PM 71.6 °F 48.2 °F 43% 29.91 in 10.0 mi SSE 9.2 mph 18.4 mph N/A   Clear
4:36 PM 71.6 °F 48.2 °F 43% 29.90 in 10.0 mi SE 17.3 mph 20.7 mph N/A   Clear
4:57 PM 71.6 °F 48.2 °F 43% 29.90 in 10.0 mi SE 13.8 mph 19.6 mph N/A   Clear
5:17 PM 69.8 °F 48.2 °F 46% 29.90 in 10.0 mi SE 17.3 mph 26.5 mph N/A   Clear
5:36 PM 69.8 °F 48.2 °F 46% 29.90 in 10.0 mi SSE 15.0 mph 21.9 mph N/A   Clear
5:57 PM 69.8 °F 48.2 °F 46% 29.91 in 10.0 mi SSE 11.5 mph 20.7 mph N/A   Clear
6:17 PM 68.0 °F 48.2 °F 49% 29.91 in 10.0 mi SE 10.4 mph 16.1 mph N/A   Clear
6:36 PM 66.2 °F 48.2 °F 52% 29.91 in 10.0 mi SE 10.4 mph - N/A   Clear
6:57 PM 64.4 °F 48.2 °F 56% 29.91 in 10.0 mi SE 10.4 mph - N/A   Clear
7:17 PM 62.6 °F 48.2 °F 59% 29.91 in 10.0 mi SE 8.1 mph - N/A   Clear
7:36 PM 57.2 °F 50.0 °F 77% 29.91 in 10.0 mi SE 5.8 mph - N/A   Clear
7:57 PM 57.2 °F 50.0 °F 77% 29.92 in 10.0 mi ESE 6.9 mph - N/A   Clear
8:17 PM 55.4 °F 51.8 °F 88% 29.92 in 10.0 mi ESE 5.8 mph - N/A   Clear
8:36 PM 55.4 °F 51.8 °F 88% 29.92 in 10.0 mi ESE 8.1 mph - N/A   Clear
8:57 PM 55.4 °F 51.8 °F 88% 29.93 in 10.0 mi ESE 8.1 mph - N/A   Clear
9:17 PM 55.4 °F 51.8 °F 88% 29.93 in 10.0 mi ESE 8.1 mph - N/A   Clear
9:36 PM 55.4 °F 51.8 °F 88% 29.94 in 10.0 mi ESE 6.9 mph - N/A   Clear
9:57 PM 55.4 °F 51.8 °F 88% 29.95 in 10.0 mi ESE 8.1 mph - N/A   Clear
10:16 PM 53.6 °F 51.8 °F 94% 29.95 in 10.0 mi ESE 5.8 mph - N/A   Clear
10:37 PM 51.8 °F 50.0 °F 94% 29.96 in 10.0 mi ESE 5.8 mph - N/A   Clear
10:56 PM 51.8 °F 50.0 °F 94% 29.96 in 10.0 mi ESE 3.5 mph - N/A   Clear
11:17 PM 51.8 °F 50.0 °F 94% 29.96 in 10.0 mi ESE 4.6 mph - N/A   Clear
11:37 PM 51.8 °F 50.0 °F 94% 29.95 in 10.0 mi ESE 6.9 mph - N/A   Clear
11:56 PM 51.8 °F 48.2 °F 88% 29.95 in 10.0 mi SE 5.8 mph - N/A   Clear